EW6800 Weather Reports


time (UTC)temp
C
wind
direction
speed
KPH
gust
KPH
rain 1hr
cm
rain 24hr
cm
rain mn
cm
humidity
%
barometer
mb
20260903174555 16 0 0.0 1.6 0.00 0.00 0.00 81 1016.2
20260903174044 16 0 0.0 0.0 0.00 0.00 0.00 82 1016.1
20260903173547 15 0 0.0 0.0 0.00 0.00 0.00 81 1016.1
20260903173058 15 0 0.0 0.0 0.00 0.00 0.00 83 1016.1
20260903172544 15 0 0.0 0.0 0.00 0.00 0.00 84 1016.1
20260903172044 15 0 0.0 1.6 0.00 0.00 0.00 85 1016.0
20260903171601 15 0 0.0 1.6 0.00 0.00 0.00 86 1016.1
20260903171045 14 0 0.0 0.0 0.00 0.00 0.00 86 1016.1
20260903170544 14 0 0.0 0.0 0.00 0.00 0.00 86 1016.1
20260903165544 13 0 0.0 0.0 0.00 0.00 0.00 88 1016.1
20260903165048 13 0 0.0 0.0 0.00 0.00 0.00 89 1016.2
20260903164557 13 0 0.0 3.2 0.00 0.00 0.00 90 1016.2
20260903164044 13 0 0.0 3.2 0.00 0.00 0.00 90 1016.1
20260903163544 13 28 0.0 4.8 0.00 0.00 0.00 91 1016.2
20260903163055 13 28 1.6 4.8 0.00 0.00 0.00 92 1016.3
20260903162544 12 0 1.6 4.8 0.00 0.00 0.00 93 1016.1
20260903162044 12 0 1.6 4.8 0.00 0.00 0.00 94 1016.1
20260903161603 12 0 0.0 3.2 0.00 0.00 0.00 94 1016.2
20260903161044 12 37 0.0 3.2 0.00 0.00 0.00 95 1016.3
20260903160544 12 0 0.0 3.2 0.00 0.00 0.00 95 1016.3
20260903160057 12 0 0.0 4.8 0.00 0.00 0.00 95 1016.2
20260903155546 12 0 0.0 4.8 0.00 0.00 0.00 95 1016.2
20260903155043 12 0 1.6 4.8 0.00 0.00 0.00 95 1016.3
20260903154554 11 318 1.6 4.8 0.00 0.00 0.00 95 1016.4
20260903154044 11 312 1.6 4.8 0.00 0.00 0.00 95 1016.2
20260903153543 11 312 3.2 8.0 0.00 0.00 0.00 95 1016.3
20260903153104 11 312 3.2 8.0 0.00 0.00 0.00 95 1016.3
20260903152544 11 311 4.8 8.0 0.00 0.00 0.00 95 1016.4
20260903152044 11 315 3.2 6.4 0.00 0.00 0.00 95 1016.3
20260903151551 11 315 3.2 6.4 0.00 0.00 0.00 95 1016.3
20260903151044 11 305 3.2 8.0 0.00 0.00 0.00 94 1016.3
20260903150545 11 305 3.2 8.0 0.00 0.00 0.00 94 1016.3
20260903150111 11 300 3.2 8.0 0.00 0.00 0.00 94 1016.3
20260903145543 11 311 4.8 8.0 0.00 0.00 0.00 94 1016.2
20260903145043 11 327 4.8 8.0 0.00 0.00 0.00 94 1016.3
20260903144610 11 319 4.8 8.0 0.00 0.00 0.00 94 1016.3
20260903144044 11 313 4.8 8.0 0.00 0.00 0.00 94 1016.4
20260903143543 11 306 4.8 8.0 0.00 0.00 0.00 94 1016.3
20260903143054 11 314 4.8 8.0 0.00 0.00 0.00 94 1016.2
20260903142543 11 304 3.2 8.0 0.00 0.00 0.00 94 1016.2
20260903142043 11 319 4.8 12.9 0.00 0.00 0.00 94 1016.1
20260903141553 10 311 6.4 12.9 0.00 0.00 0.00 94 1016.1
20260903141044 10 294 4.8 8.0 0.00 0.00 0.00 93 1016.1
20260903140544 10 312 3.2 4.8 0.00 0.00 0.00 93 1016.0
20260903140104 10 312 1.6 3.2 0.00 0.00 0.00 93 1016.0
20260903135544 10 0 0.0 0.0 0.00 0.00 0.00 93 1016.0
20260903135045 10 0 0.0 0.0 0.00 0.00 0.00 93 1015.8
20260903134614 10 0 0.0 1.6 0.00 0.00 0.00 93 1015.8
20260903134047 10 0 0.0 3.2 0.00 0.00 0.00 93 1015.8
20260903133547 10 0 0.0 4.8 0.00 0.00 0.00 93 1015.9
20260903133106 10 312 0.0 4.8 0.00 0.00 0.00 93 1015.8
20260903132543 10 312 1.6 6.4 0.00 0.00 0.00 93 1015.9
20260903132045 11 312 3.2 8.0 0.00 0.00 0.00 93 1015.9
20260903131605 11 312 4.8 8.0 0.00 0.00 0.00 92 1015.9
20260903131045 11 313 4.8 8.0 0.00 0.00 0.00 92 1015.8
20260903130544 11 316 4.8 8.0 0.00 0.00 0.00 92 1015.9
20260903130105 11 309 4.8 8.0 0.00 0.00 0.00 92 1015.8
20260903125546 11 317 1.6 6.4 0.00 0.00 0.00 91 1015.8
20260903125044 11 317 3.2 6.4 0.00 0.00 0.00 91 1015.8
20260903124600 11 317 3.2 8.0 0.00 0.00 0.00 91 1015.8
20260903124043 11 318 3.2 8.0 0.00 0.00 0.00 90 1015.9
20260903123546 11 318 1.6 6.4 0.00 0.00 0.00 90 1016.0
20260903123057 11 317 3.2 6.4 0.00 0.00 0.00 90 1016.0
20260903122543 11 317 3.2 6.4 0.00 0.00 0.00 89 1016.1
20260903122043 11 321 3.2 6.4 0.00 0.00 0.00 89 1016.1
20260903121601 11 321 3.2 6.4 0.00 0.00 0.00 88 1016.1
20260903121044 11 313 3.2 8.0 0.00 0.00 0.00 87 1016.0
20260903120544 12 311 3.2 8.0 0.00 0.00 0.00 86 1016.1
20260903120109 12 319 3.2 6.4 0.00 0.00 0.00 85 1016.0
20260903115543 12 319 0.0 6.4 0.00 0.00 0.00 85 1016.1
20260903115043 12 319 1.6 6.4 0.00 0.00 0.00 85 1016.2
20260903114555 12 319 1.6 6.4 0.00 0.00 0.00 85 1016.1
20260903114043 12 317 3.2 6.4 0.00 0.00 0.00 85 1016.1
20260903113544 12 321 4.8 9.7 0.00 0.00 0.00 85 1016.2
20260903113053 12 316 3.2 11.3 0.00 0.00 0.00 84 1016.3
20260903112543 12 316 4.8 11.3 0.00 0.00 0.00 84 1016.3
20260903112043 12 312 4.8 8.0 0.00 0.00 0.00 83 1016.4
20260903111551 12 309 4.8 11.3 0.00 0.00 0.00 81 1016.4
20260903111044 12 315 4.8 11.3 0.00 0.00 0.00 80 1016.5
20260903110544 12 311 4.8 11.3 0.00 0.00 0.00 79 1016.6
20260903110104 12 302 6.4 9.7 0.00 0.00 0.00 78 1016.5
20260903105547 12 312 4.8 11.3 0.00 0.00 0.00 77 1016.6
20260903105044 12 312 4.8 12.9 0.00 0.00 0.00 77 1016.6
20260903104622 12 311 6.4 12.9 0.00 0.00 0.00 75 1016.6
20260903104043 12 318 6.4 12.9 0.00 0.00 0.00 75 1016.6
20260903103546 12 306 6.4 12.9 0.00 0.00 0.00 75 1016.5
20260903103104 12 306 6.4 12.9 0.00 0.00 0.00 75 1016.6
20260903102543 12 311 6.4 11.3 0.00 0.00 0.00 75 1016.6
20260903102042 12 309 4.8 11.3 0.00 0.00 0.00 74 1016.5
20260903101604 12 311 4.8 11.3 0.00 0.00 0.00 74 1016.6
20260903101047 12 313 6.4 11.3 0.00 0.00 0.00 74 1016.6
20260903100544 12 308 4.8 11.3 0.00 0.00 0.00 74 1016.6
20260903100217 12 311 6.4 11.3 0.00 0.00 0.00 74 1016.6
20260903095542 12 311 4.8 11.3 0.00 0.00 0.00 75 1016.6
20260903095043 12 306 4.8 11.3 0.00 0.00 0.00 75 1016.7
20260903094605 12 300 6.4 8.0 0.00 0.00 0.00 76 1016.7
20260903094043 12 311 6.4 8.0 0.00 0.00 0.00 76 1016.8
20260903093543 12 311 4.8 9.7 0.00 0.00 0.00 77 1016.8
20260903093105 12 309 6.4 11.3 0.00 0.00 0.00 76 1016.9
20260903092545 12 323 4.8 11.3 0.00 0.00 0.00 76 1016.8
20260903092044 12 305 4.8 11.3 0.00 0.00 0.00 75 1016.9
20260903091615 12 311 4.8 12.9 0.00 0.00 0.00 75 1017.0
20260903091043 12 312 8.0 12.9 0.00 0.00 0.00 74 1017.0
20260903090543 12 313 4.8 11.3 0.00 0.00 0.00 74 1017.1
20260903090059 12 311 4.8 11.3 0.00 0.00 0.00 74 1017.1
20260903085543 12 306 6.4 11.3 0.00 0.00 0.00 74 1017.0
20260903085042 12 308 6.4 11.3 0.00 0.00 0.00 75 1017.1
20260903084600 12 310 6.4 11.3 0.00 0.00 0.00 76 1017.0
20260903084043 12 312 6.4 11.3 0.00 0.00 0.00 78 1017.1
20260903083546 12 319 4.8 8.0 0.00 0.00 0.00 81 1017.1
20260903083059 12 323 4.8 8.0 0.00 0.00 0.00 82 1017.1
20260903082543 12 313 4.8 8.0 0.00 0.00 0.00 83 1017.2
20260903082044 11 315 4.8 8.0 0.00 0.00 0.00 83 1017.2
20260903081549 11 315 4.8 8.0 0.00 0.00 0.00 84 1017.2
20260903081043 11 315 4.8 8.0 0.00 0.00 0.00 86 1017.3
20260903080542 11 315 4.8 8.0 0.00 0.00 0.00 89 1017.2
20260903075544 11 317 4.8 8.0 0.00 0.00 0.00 90 1017.3
20260903075043 11 316 6.4 8.0 0.00 0.00 0.00 91 1017.1
20260903074603 11 316 4.8 11.3 0.00 0.00 0.00 92 1017.2
20260903074043 11 315 4.8 12.9 0.00 0.00 0.00 92 1017.1
20260903073543 11 315 6.4 12.9 0.00 0.00 0.00 92 1017.1
20260903073059 11 311 4.8 8.0 0.00 0.00 0.00 92 1017.1
20260903072543 11 315 4.8 8.0 0.00 0.00 0.00 91 1017.0
20260903072043 11 305 4.8 8.0 0.00 0.00 0.00 90 1016.9
20260903071614 11 316 4.8 9.7 0.00 0.00 0.00 89 1017.0
20260903071042 11 313 4.8 12.9 0.00 0.00 0.00 88 1017.0
20260903070542 11 315 6.4 14.5 0.00 0.00 0.00 89 1017.0
20260903070100 11 312 8.0 14.5 0.00 0.00 0.00 90 1017.0
20260903065546 11 302 9.7 14.5 0.00 0.00 0.00 91 1016.8
20260903065043 11 313 8.0 12.9 0.00 0.00 0.00 92 1016.9
20260903064559 11 333 8.0 12.9 0.00 0.00 0.00 92 1016.9
20260903064043 11 315 6.4 11.3 0.00 0.00 0.00 92 1016.9
20260903063543 11 315 6.4 11.3 0.00 0.00 0.00 92 1016.9
20260903063106 11 307 4.8 9.7 0.00 0.00 0.00 92 1017.0
20260903062547 11 316 4.8 9.7 0.00 0.00 0.00 92 1017.0
20260903062043 11 317 6.4 11.3 0.00 0.00 0.00 92 1017.0
20260903061600 11 312 6.4 11.3 0.00 0.00 0.00 92 1017.1
20260903061042 11 309 6.4 11.3 0.00 0.00 0.00 91 1017.1
20260903060543 12 315 4.8 12.9 0.00 0.00 0.00 91 1017.1
20260903060058 12 317 6.4 12.9 0.00 0.00 0.00 90 1017.2
20260903055543 12 306 6.4 12.9 0.00 0.00 0.00 89 1017.2
20260903055043 12 308 4.8 11.3 0.00 0.00 0.00 88 1017.3
20260903054556 12 296 4.8 11.3 0.00 0.00 0.00 87 1017.4
20260903054043 12 326 4.8 12.9 0.00 0.00 0.00 86 1017.5
20260903053547 12 318 4.8 12.9 0.00 0.00 0.00 86 1017.4
20260903053117 12 305 6.4 12.9 0.00 0.00 0.00 85 1017.4
20260903052633 12 305 6.4 12.9 0.00 0.00 0.00 85 1017.5
20260903052043 12 311 8.0 12.9 0.00 0.00 0.00 84 1017.4
20260903051559 12 312 6.4 12.9 0.00 0.00 0.00 83 1017.5
20260903051046 12 316 8.0 14.5 0.00 0.00 0.00 82 1017.4
20260903050547 12 302 8.0 14.5 0.00 0.00 0.00 82 1017.5
20260903050106 12 309 11.3 16.1 0.00 0.00 0.00 82 1017.6
20260903045544 12 315 11.3 16.1 0.00 0.00 0.00 81 1017.5
20260903045043 12 299 11.3 16.1 0.00 0.00 0.00 80 1017.5
20260903044601 12 312 9.7 16.1 0.00 0.00 0.00 80 1017.5
20260903044043 12 314 8.0 14.5 0.00 0.00 0.00 80 1017.5
20260903043543 12 317 8.0 14.5 0.00 0.00 0.00 80 1017.4
20260903043112 12 315 8.0 12.9 0.00 0.00 0.00 82 1017.4
20260903042544 12 308 6.4 8.0 0.00 0.00 0.00 84 1017.4
20260903042047 12 314 3.2 8.0 0.00 0.00 0.00 88 1017.4
20260903041600 12 317 4.8 8.0 0.00 0.00 0.00 89 1017.3
20260903041045 12 313 4.8 8.0 0.00 0.00 0.00 90 1017.4
20260903040544 12 317 4.8 8.0 0.00 0.00 0.00 90 1017.2
20260903040058 12 319 3.2 6.4 0.00 0.00 0.00 89 1017.3
20260903035543 12 322 3.2 8.0 0.00 0.00 0.00 90 1017.3
20260903035044 12 306 3.2 8.0 0.00 0.00 0.00 89 1017.2
20260903034608 12 307 3.2 6.4 0.00 0.00 0.00 89 1017.1
20260903034043 12 309 3.2 8.0 0.00 0.00 0.00 89 1017.1
20260903033543 12 313 3.2 9.7 0.00 0.00 0.00 89 1017.1
20260903033100 12 321 3.2 11.3 0.00 0.00 0.00 88 1017.1
20260903032544 12 313 4.8 11.3 0.00 0.00 0.00 88 1017.1
20260903032046 12 312 4.8 11.3 0.00 0.00 0.00 88 1017.1
20260903031618 13 309 4.8 12.9 0.00 0.00 0.00 87 1017.1
20260903031044 13 317 4.8 12.9 0.00 0.00 0.00 87 1017.1
20260903030543 13 301 6.4 12.9 0.00 0.00 0.00 86 1017.1
20260903030054 13 315 6.4 12.9 0.00 0.00 0.00 86 1017.0
20260903025544 13 304 6.4 12.9 0.00 0.00 0.00 85 1017.0
20260903025047 13 309 6.4 12.9 0.00 0.00 0.00 84 1017.0
20260903024600 13 311 6.4 14.5 0.00 0.00 0.00 83 1017.1
20260903024044 13 306 6.4 14.5 0.00 0.00 0.00 83 1017.0
20260903023547 13 313 9.7 14.5 0.00 0.00 0.00 82 1017.0
20260903023059 14 312 8.0 14.5 0.00 0.00 0.00 80 1017.0
20260903022545 14 304 9.7 14.5 0.00 0.00 0.00 79 1017.0
20260903022045 14 306 8.0 14.5 0.00 0.00 0.00 78 1017.0
20260903021555 14 319 9.7 14.5 0.00 0.00 0.00 76 1017.0
20260903021118 14 303 8.0 14.5 0.00 0.00 0.00 75 1016.9
20260903020544 14 302 9.7 14.5 0.00 0.00 0.00 76 1017.1
20260903020104 15 318 8.0 14.5 0.00 0.00 0.00 74 1017.2
20260903015543 15 316 9.7 16.1 0.00 0.00 0.00 75 1017.2
20260903015042 15 308 8.0 16.1 0.00 0.00 0.00 76 1017.2
20260903014556 15 291 9.7 16.1 0.00 0.00 0.00 76 1017.3
20260903014044 15 323 9.7 16.1 0.00 0.00 0.00 76 1017.3
20260903013544 15 324 8.0 17.7 0.00 0.00 0.00 76 1017.4
20260903013057 15 309 8.0 17.7 0.00 0.00 0.00 77 1017.4
20260903012544 16 313 8.0 16.1 0.00 0.00 0.00 77 1017.4
20260903012043 16 298 6.4 14.5 0.00 0.00 0.00 77 1017.4
20260903011559 16 302 9.7 14.5 0.00 0.00 0.00 77 1017.4
20260903011043 16 286 6.4 11.3 0.00 0.00 0.00 78 1017.5
20260903010545 16 303 6.4 11.3 0.00 0.00 0.00 78 1017.4
20260903010056 16 299 4.8 11.3 0.00 0.00 0.00 77 1017.5
20260903005545 16 302 4.8 12.9 0.00 0.00 0.00 77 1017.5
20260903005043 16 314 6.4 12.9 0.00 0.00 0.00 76 1017.4
20260903004601 16 302 8.0 14.5 0.00 0.00 0.00 76 1017.4
20260903004044 17 302 6.4 14.5 0.00 0.00 0.00 75 1017.4
20260903003544 17 321 6.4 12.9 0.00 0.00 0.00 75 1017.4
20260903003105 17 299 6.4 12.9 0.00 0.00 0.00 75 1017.4
20260903002543 17 309 8.0 17.7 0.00 0.00 0.00 75 1017.3
20260903002044 17 315 8.0 17.7 0.00 0.00 0.00 74 1017.3
20260903001554 17 317 8.0 16.1 0.00 0.00 0.00 74 1017.4
20260903001051 17 313 4.8 14.5 0.00 0.00 0.00 74 1017.5
20260903000543 17 307 4.8 14.5 0.00 0.00 0.00 73 1017.5
20260903000057 18 294 4.8 14.5 0.00 0.00 0.00 71 1017.4
20260902235543 18 310 4.8 11.3 0.00 0.00 0.00 71 1017.5
20260902235044 18 328 3.2 11.3 0.00 0.00 0.00 71 1017.5
20260902234555 18 306 4.8 14.5 0.00 0.00 0.00 69 1017.5
20260902234047 19 311 4.8 14.5 0.00 0.00 0.00 67 1017.5
20260902233544 20 315 3.2 8.0 0.00 0.00 0.00 65 1017.5
20260902233059 20 318 1.6 14.5 0.00 0.00 0.00 64 1017.5
20260902232543 20 0 1.6 14.5 0.00 0.00 0.00 64 1017.5
20260902232043 20 278 1.6 9.7 0.00 0.00 0.00 63 1017.5
20260902231601 20 0 1.6 6.4 0.00 0.00 0.00 63 1017.5
20260902231044 20 0 1.6 12.9 0.00 0.00 0.00 64 1017.5
20260902230544 20 0 1.6 12.9 0.00 0.00 0.00 63 1017.5
20260902230056 20 214 1.6 11.3 0.00 0.00 0.00 63 1017.6
20260902225543 20 298 1.6 11.3 0.00 0.00 0.00 63 1017.6
20260902225046 20 239 3.2 9.7 0.00 0.00 0.00 63 1017.7
20260902224556 20 54 1.6 6.4 0.00 0.00 0.00 66 1017.7
20260902224044 20 0 1.6 6.4 0.00 0.00 0.00 67 1017.7
20260902223543 20 279 1.6 9.7 0.00 0.00 0.00 66 1017.8
20260902223102 20 0 0.0 11.3 0.00 0.00 0.00 67 1017.7
20260902222545 20 217 1.6 11.3 0.00 0.00 0.00 65 1017.8
20260902222045 20 211 0.0 8.0 0.00 0.00 0.00 67 1017.8
20260902221607 20 209 1.6 11.3 0.00 0.00 0.00 65 1017.9
20260902221046 20 0 1.6 11.3 0.00 0.00 0.00 66 1018.0
20260902220543 20 269 3.2 11.3 0.00 0.00 0.00 64 1018.1
20260902220100 20 154 0.0 9.7 0.00 0.00 0.00 68 1018.1
20260902215543 20 0 0.0 9.7 0.00 0.00 0.00 68 1018.2
20260902215043 19 144 1.6 9.7 0.00 0.00 0.00 70 1018.2
20260902214604 18 0 1.6 11.3 0.00 0.00 0.00 73 1018.3
20260902214044 18 117 3.2 11.3 0.00 0.00 0.00 75 1018.4
20260902213544 18 235 0.0 11.3 0.00 0.00 0.00 74 1018.5
20260902213059 18 100 3.2 11.3 0.00 0.00 0.00 75 1018.5
20260902212544 18 117 1.6 9.7 0.00 0.00 0.00 75 1018.5
20260902212044 18 101 1.6 8.0 0.00 0.00 0.00 76 1018.6
20260902211614 18 0 0.0 4.8 0.00 0.00 0.00 78 1018.6
20260902211043 17 0 0.0 11.3 0.00 0.00 0.00 78 1018.6
20260902210543 17 0 1.6 11.3 0.00 0.00 0.00 82 1018.6
20260902210114 17 146 3.2 8.0 0.00 0.00 0.00 83 1018.7
20260902205547 16 181 1.6 6.4 0.00 0.00 0.00 85 1018.7
20260902205043 16 140 1.6 6.4 0.00 0.00 0.00 88 1018.7
20260902204557 16 135 0.0 8.0 0.00 0.00 0.00 88 1018.7
20260902204043 15 136 3.2 8.0 0.00 0.00 0.00 86 1018.8
20260902203542 16 150 1.6 9.7 0.00 0.00 0.00 86 1018.7
20260902203059 16 0 1.6 9.7 0.00 0.00 0.00 87 1018.7
20260902202544 16 0 0.0 4.8 0.00 0.00 0.00 88 1018.7
20260902202044 15 0 1.6 4.8 0.00 0.00 0.00 88 1018.8
20260902201611 15 0 1.6 4.8 0.00 0.00 0.00 87 1018.9
20260902201045 15 0 1.6 4.8 0.00 0.00 0.00 87 1019.0
20260902200546 15 0 0.0 4.8 0.00 0.00 0.00 86 1019.0
20260902200053 15 0 1.6 4.8 0.00 0.00 0.00 86 1019.0
20260902195544 15 0 0.0 4.8 0.00 0.00 0.00 85 1019.0
20260902195043 15 0 1.6 8.0 0.00 0.00 0.00 85 1018.9
20260902194554 15 143 1.6 9.7 0.00 0.00 0.00 84 1018.9
20260902194048 15 144 3.2 9.7 0.00 0.00 0.00 83 1018.9
20260902193544 15 161 3.2 9.7 0.00 0.00 0.00 84 1018.8
20260902193051 15 154 4.8 9.7 0.00 0.00 0.00 83 1018.8
20260902192546 15 123 0.0 11.3 0.00 0.00 0.00 84 1018.9
20260902192044 15 128 4.8 11.3 0.00 0.00 0.00 83 1018.9
20260902191602 15 177 0.0 3.2 0.00 0.00 0.00 83 1018.9
20260902191043 15 180 0.0 9.7 0.00 0.00 0.00 83 1019.0
20260902190543 15 186 3.2 9.7 0.00 0.00 0.00 84 1018.9
20260902190054 15 141 3.2 11.3 0.00 0.00 0.00 84 1018.9
20260902185543 15 146 4.8 11.3 0.00 0.00 0.00 85 1018.9
20260902185045 15 113 4.8 9.7 0.00 0.00 0.00 86 1019.1
20260902184557 15 142 3.2 11.3 0.00 0.00 0.00 86 1019.1
20260902184047 15 145 4.8 11.3 0.00 0.00 0.00 86 1019.0
20260902183548 15 140 3.2 8.0 0.00 0.00 0.00 86 1018.9
20260902183051 14 0 1.6 8.0 0.00 0.00 0.00 86 1018.9
20260902182544 14 137 3.2 8.0 0.00 0.00 0.00 86 1018.9
20260902182043 14 151 3.2 11.3 0.00 0.00 0.00 86 1018.8
20260902181559 14 146 4.8 11.3 0.00 0.00 0.00 87 1018.7
20260902181043 14 135 4.8 12.9 0.00 0.00 0.00 87 1018.8
20260902180543 14 150 4.8 12.9 0.00 0.00 0.00 87 1018.8
20260902180116 13 138 4.8 11.3 0.00 0.00 0.00 88 1018.8
20260902175543 13 144 6.4 11.3 0.00 0.00 0.00 88 1018.7
20260902175043 13 132 3.2 12.9 0.00 0.00 0.00 88 1018.7